Location: Bretagne
(43.8474°N, 0.4650°W)
Time: 11:16:13
(UTC+00:00)

BREEZE-M DEB (TANK) - Pass Details

Date: 15 January 2026
Orbit: 273 x 16131 km, 49.5° (Epoch: 11 February)

Event Time Altitude Azimuth Distance (km) Brightness Sun altitude
Rises 19:28:28 0° 272° (W) 2,524 7.0 -28.1°
Reaches altitude 10° 19:29:49 10° 277° (W) 1,940 6.0 -28.3°
Maximum altitude 19:33:43 58° 359° (N) 1,257 3.9 -29.0°
Enters shadow 19:34:55 52° 36° (NE) 1,554 4.2 -29.2°
